User: anonymous   Login
Location: *
(32.3300°N, 34.8500°E)
Time: 12:39:37
(UTC+00:00)
Language:

CZ-2C R/B - Orbit

View from above orbital plane
View from above orbital plane
View from above satellite
View from above satellite

Ground track
Ground track

The orbit data is extracted from the following two-line orbital elements,

1 36089U 09061B   19348.67785194  .00000036  00000-0  20241-4 0  9996
2 36089  98.1306 323.5358 0083085 123.0834  48.6871 14.49806425533636
Epoch (UTC): 14 December 2019 16:16:06
Eccentricity: 0.0083085
inclination: 98.1306°
perigee height: 667 km
apogee height: 785 km
right ascension of ascending node: 323.5358°
argument of perigee: 123.0834°
revolutions per day: 14.49806425
mean anomaly at epoch: 48.6871°
orbit number at epoch: 53363

The dashed part of the orbit path shows where the satellite is in the earth's shadow,  

DLR